Year,Month,Day,Hour,Minute,Value (Times are PST for temperature in C)
2012,05,25,00,00,10.30
2012,05,25,00,01,10.30
2012,05,25,00,02,10.30
2012,05,25,00,03,10.30
2012,05,25,00,04,10.30
2012,05,25,00,05,10.30
2012,05,25,00,06,10.30
2012,05,25,00,07,10.30
2012,05,25,00,08,10.30
2012,05,25,00,09,10.30
2012,05,25,00,10,10.30
2012,05,25,00,11,10.30
2012,05,25,00,12,10.30
2012,05,25,00,13,10.30
2012,05,25,00,14,10.30
2012,05,25,00,15,10.30
2012,05,25,00,16,10.30
2012,05,25,00,17,10.30
2012,05,25,00,18,10.30
2012,05,25,00,19,10.20
2012,05,25,00,20,10.20
2012,05,25,00,21,10.20
2012,05,25,00,22,10.20
2012,05,25,00,23,10.20
2012,05,25,00,24,10.20
2012,05,25,00,25,10.10
2012,05,25,00,26,10.10
2012,05,25,00,27,10.10
2012,05,25,00,28,10.10
2012,05,25,00,29,10.10
2012,05,25,00,30,10.10
2012,05,25,00,31,10.10
2012,05,25,00,32,10.00
2012,05,25,00,33,10.00
2012,05,25,00,34,10.00
2012,05,25,00,35,10.00
2012,05,25,00,36,10.00
2012,05,25,00,37,10.00
2012,05,25,00,38,10.00
2012,05,25,00,39,9.90
2012,05,25,00,40,9.90
2012,05,25,00,41,9.90
2012,05,25,00,42,9.90
2012,05,25,00,43,9.90
2012,05,25,00,44,9.90
2012,05,25,00,45,9.90
2012,05,25,00,46,9.90
2012,05,25,00,47,9.90
2012,05,25,00,48,9.90
2012,05,25,00,49,9.90
2012,05,25,00,50,9.90
2012,05,25,00,51,9.90
2012,05,25,00,52,9.90
2012,05,25,00,53,9.90
2012,05,25,00,54,9.90
2012,05,25,00,55,9.90
2012,05,25,00,56,9.90
2012,05,25,00,57,9.90
2012,05,25,00,58,9.90
2012,05,25,00,59,9.90
2012,05,25,01,00,9.90
2012,05,25,01,01,9.90
2012,05,25,01,02,9.90
2012,05,25,01,03,9.90
2012,05,25,01,04,9.90
2012,05,25,01,05,9.90
2012,05,25,01,06,9.90
2012,05,25,01,07,9.90
2012,05,25,01,08,9.80
2012,05,25,01,09,9.80
2012,05,25,01,10,9.80
2012,05,25,01,11,9.80
2012,05,25,01,12,9.80
2012,05,25,01,13,9.80
2012,05,25,01,14,9.80
2012,05,25,01,15,9.80
2012,05,25,01,16,9.80
2012,05,25,01,17,9.80
2012,05,25,01,18,9.80
2012,05,25,01,19,9.80
2012,05,25,01,20,9.80
2012,05,25,01,21,9.80
2012,05,25,01,22,9.80
2012,05,25,01,23,9.80
2012,05,25,01,24,9.80
2012,05,25,01,25,9.70
2012,05,25,01,26,9.70
2012,05,25,01,27,9.70
2012,05,25,01,28,9.70
2012,05,25,01,29,9.70
2012,05,25,01,30,9.70
2012,05,25,01,31,9.70
2012,05,25,01,32,9.60
2012,05,25,01,33,9.70
2012,05,25,01,34,9.60
2012,05,25,01,35,9.60
2012,05,25,01,36,9.60
2012,05,25,01,37,9.60
2012,05,25,01,38,9.60
2012,05,25,01,39,9.60
2012,05,25,01,40,9.60
2012,05,25,01,41,9.60
2012,05,25,01,42,9.60
2012,05,25,01,43,9.60
2012,05,25,01,44,9.60
2012,05,25,01,45,9.60
2012,05,25,01,46,9.60
2012,05,25,01,47,9.60
2012,05,25,01,48,9.50
2012,05,25,01,49,9.50
2012,05,25,01,50,9.50
2012,05,25,01,51,9.50
2012,05,25,01,52,9.50
2012,05,25,01,53,9.50
2012,05,25,01,54,9.50
2012,05,25,01,55,9.50
2012,05,25,01,56,9.50
2012,05,25,01,57,9.50
2012,05,25,01,58,9.50
2012,05,25,01,59,9.50
2012,05,25,02,00,9.50
2012,05,25,02,01,9.50
2012,05,25,02,02,9.50
2012,05,25,02,03,9.50
2012,05,25,02,04,9.50
2012,05,25,02,05,9.50
2012,05,25,02,06,9.40
2012,05,25,02,07,9.40
2012,05,25,02,08,9.40
2012,05,25,02,09,9.40
2012,05,25,02,10,9.40
2012,05,25,02,11,9.40
2012,05,25,02,12,9.40
2012,05,25,02,13,9.40
2012,05,25,02,14,9.40
2012,05,25,02,15,9.40
2012,05,25,02,16,9.40
2012,05,25,02,17,9.40
2012,05,25,02,18,9.40
2012,05,25,02,19,9.40
2012,05,25,02,20,9.40
2012,05,25,02,21,9.40
2012,05,25,02,22,9.40
2012,05,25,02,23,9.40
2012,05,25,02,24,9.40
2012,05,25,02,25,9.40
2012,05,25,02,26,9.40
2012,05,25,02,27,9.40
2012,05,25,02,28,9.40
2012,05,25,02,29,9.40
2012,05,25,02,30,9.40
2012,05,25,02,31,9.40
2012,05,25,02,32,9.40
2012,05,25,02,33,9.40
2012,05,25,02,34,9.40
2012,05,25,02,35,9.40
2012,05,25,02,36,9.40
2012,05,25,02,37,9.40
2012,05,25,02,38,9.40
2012,05,25,02,39,9.40
2012,05,25,02,40,9.40
2012,05,25,02,41,9.40
2012,05,25,02,42,9.40
2012,05,25,02,43,9.40
2012,05,25,02,44,9.40
2012,05,25,02,45,9.40
2012,05,25,02,46,9.40
2012,05,25,02,47,9.40
2012,05,25,02,48,9.40
2012,05,25,02,49,9.40
2012,05,25,02,50,9.40
2012,05,25,02,51,9.40
2012,05,25,02,52,9.40
2012,05,25,02,53,9.40
2012,05,25,02,54,9.40
2012,05,25,02,55,9.40
2012,05,25,02,56,9.40
2012,05,25,02,57,9.40
2012,05,25,02,58,9.40
2012,05,25,02,59,9.40
2012,05,25,03,00,9.40
2012,05,25,03,01,9.40
2012,05,25,03,02,9.40
2012,05,25,03,03,9.40
2012,05,25,03,04,9.40
2012,05,25,03,05,9.40
2012,05,25,03,06,9.40
2012,05,25,03,07,9.40
2012,05,25,03,08,9.40
2012,05,25,03,09,9.40
2012,05,25,03,10,9.40
2012,05,25,03,11,9.40
2012,05,25,03,12,9.40
2012,05,25,03,13,9.40
2012,05,25,03,14,9.40
2012,05,25,03,15,9.40
2012,05,25,03,16,9.40
2012,05,25,03,17,9.40
2012,05,25,03,18,9.40
2012,05,25,03,19,9.40
2012,05,25,03,20,9.40
2012,05,25,03,21,9.40
2012,05,25,03,22,9.40
2012,05,25,03,23,9.30
2012,05,25,03,24,9.30
2012,05,25,03,25,9.30
2012,05,25,03,26,9.30
2012,05,25,03,27,9.30
2012,05,25,03,28,9.30
2012,05,25,03,29,9.30
2012,05,25,03,30,9.30
2012,05,25,03,31,9.30
2012,05,25,03,32,9.30
2012,05,25,03,33,9.30
2012,05,25,03,34,9.30
2012,05,25,03,35,9.30
2012,05,25,03,36,9.30
2012,05,25,03,37,9.20
2012,05,25,03,38,9.20
2012,05,25,03,39,9.20
2012,05,25,03,40,9.20
2012,05,25,03,41,9.20
2012,05,25,03,42,9.20
2012,05,25,03,43,9.20
2012,05,25,03,44,9.20
2012,05,25,03,45,9.20
2012,05,25,03,46,9.20
2012,05,25,03,47,9.20
2012,05,25,03,48,9.20
2012,05,25,03,49,9.20
2012,05,25,03,50,9.20
2012,05,25,03,51,9.20
2012,05,25,03,52,9.20
2012,05,25,03,53,9.20
2012,05,25,03,54,9.20
2012,05,25,03,55,9.20
2012,05,25,03,56,9.20
2012,05,25,03,57,9.20
2012,05,25,03,58,9.20
2012,05,25,03,59,9.20
2012,05,25,04,00,9.20
2012,05,25,04,01,9.20
2012,05,25,04,02,9.20
2012,05,25,04,03,9.20
2012,05,25,04,04,9.20
2012,05,25,04,05,9.20
2012,05,25,04,06,9.20
2012,05,25,04,07,9.20
2012,05,25,04,08,9.20
2012,05,25,04,09,9.20
2012,05,25,04,10,9.20
2012,05,25,04,11,9.20
2012,05,25,04,12,9.20
2012,05,25,04,13,9.20
2012,05,25,04,14,9.20
2012,05,25,04,15,9.20
2012,05,25,04,16,9.20
2012,05,25,04,17,9.20
2012,05,25,04,18,9.20
2012,05,25,04,19,9.20
2012,05,25,04,20,9.10
2012,05,25,04,21,9.10
2012,05,25,04,22,9.10
2012,05,25,04,23,9.10
2012,05,25,04,24,9.10
2012,05,25,04,25,9.10
2012,05,25,04,26,9.00
2012,05,25,04,27,9.00
2012,05,25,04,28,9.00
2012,05,25,04,29,9.00
2012,05,25,04,30,9.00
2012,05,25,04,31,8.90
2012,05,25,04,32,8.90
2012,05,25,04,33,8.90
2012,05,25,04,34,8.90
2012,05,25,04,35,8.90
2012,05,25,04,36,8.90
2012,05,25,04,37,8.90
2012,05,25,04,38,8.90
2012,05,25,04,39,8.90
2012,05,25,04,40,8.90
2012,05,25,04,41,8.80
2012,05,25,04,42,8.90
2012,05,25,04,43,8.90
2012,05,25,04,44,8.90
2012,05,25,04,45,8.80
2012,05,25,04,46,8.90
2012,05,25,04,47,8.90
2012,05,25,04,48,8.90
2012,05,25,04,49,8.90
2012,05,25,04,50,8.90
2012,05,25,04,51,8.80
2012,05,25,04,52,8.80
2012,05,25,04,53,8.80
2012,05,25,04,54,8.80
2012,05,25,04,55,8.80
2012,05,25,04,56,8.80
2012,05,25,04,57,8.80
2012,05,25,04,58,8.80
2012,05,25,04,59,8.80
2012,05,25,05,00,8.80
2012,05,25,05,01,8.80
2012,05,25,05,02,8.80
2012,05,25,05,03,8.90
2012,05,25,05,04,8.90
2012,05,25,05,05,8.90
2012,05,25,05,06,8.90
2012,05,25,05,07,8.90
2012,05,25,05,08,9.00
2012,05,25,05,09,9.00
2012,05,25,05,10,9.00
2012,05,25,05,11,9.00
2012,05,25,05,12,8.90
2012,05,25,05,13,8.90
2012,05,25,05,14,8.90
2012,05,25,05,15,8.90
2012,05,25,05,16,8.90
2012,05,25,05,17,8.90
2012,05,25,05,18,8.90
2012,05,25,05,19,8.90
2012,05,25,05,20,8.90
2012,05,25,05,21,8.90
2012,05,25,05,22,8.90
2012,05,25,05,23,8.90
2012,05,25,05,24,8.90
2012,05,25,05,25,8.90
2012,05,25,05,26,8.90
2012,05,25,05,27,8.90
2012,05,25,05,28,8.90
2012,05,25,05,29,8.90
2012,05,25,05,30,8.90
2012,05,25,05,31,8.90
2012,05,25,05,32,8.80
2012,05,25,05,33,8.80
2012,05,25,05,34,8.80
2012,05,25,05,35,8.80
2012,05,25,05,36,8.80
2012,05,25,05,37,8.80
2012,05,25,05,38,8.80
2012,05,25,05,39,8.80
2012,05,25,05,40,8.80
2012,05,25,05,41,8.80
2012,05,25,05,42,8.80
2012,05,25,05,43,8.80
2012,05,25,05,44,8.80
2012,05,25,05,45,8.80
2012,05,25,05,46,8.80
2012,05,25,05,47,8.80
2012,05,25,05,48,8.80
2012,05,25,05,49,8.80
2012,05,25,05,50,8.80
2012,05,25,05,51,8.80
2012,05,25,05,52,8.80
2012,05,25,05,53,8.80
2012,05,25,05,54,8.80
2012,05,25,05,55,8.80
2012,05,25,05,56,8.80
2012,05,25,05,57,8.80
2012,05,25,05,58,8.80
2012,05,25,05,59,8.80
2012,05,25,06,00,8.80
2012,05,25,06,01,8.80
2012,05,25,06,02,8.80
2012,05,25,06,03,8.80
2012,05,25,06,04,8.80
2012,05,25,06,05,8.80
2012,05,25,06,06,8.80
2012,05,25,06,07,8.80
2012,05,25,06,08,8.80
2012,05,25,06,09,8.80
2012,05,25,06,10,8.80
2012,05,25,06,11,8.80
2012,05,25,06,12,8.80
2012,05,25,06,13,8.80
2012,05,25,06,14,8.80
2012,05,25,06,15,8.80
2012,05,25,06,16,8.80
2012,05,25,06,17,8.80
2012,05,25,06,18,8.80
2012,05,25,06,19,8.80
2012,05,25,06,20,8.90
2012,05,25,06,21,8.90
2012,05,25,06,22,8.90
2012,05,25,06,23,8.90
2012,05,25,06,24,9.00
2012,05,25,06,25,9.00
2012,05,25,06,26,9.00
2012,05,25,06,27,9.00
2012,05,25,06,28,9.10
2012,05,25,06,29,9.10
2012,05,25,06,30,9.10
2012,05,25,06,31,9.10
2012,05,25,06,32,9.20
2012,05,25,06,33,9.20
2012,05,25,06,34,9.20
2012,05,25,06,35,9.30
2012,05,25,06,36,9.30
2012,05,25,06,37,9.40
2012,05,25,06,38,9.40
2012,05,25,06,39,9.40
2012,05,25,06,40,9.50
2012,05,25,06,41,9.50
2012,05,25,06,42,9.60
2012,05,25,06,43,9.60
2012,05,25,06,44,9.70
2012,05,25,06,45,9.70
2012,05,25,06,46,9.80
2012,05,25,06,47,9.80
2012,05,25,06,48,9.90
2012,05,25,06,49,10.00
2012,05,25,06,50,10.00
2012,05,25,06,51,10.10
2012,05,25,06,52,10.20
2012,05,25,06,53,10.20
2012,05,25,06,54,10.30
2012,05,25,06,55,10.30
2012,05,25,06,56,10.30
2012,05,25,06,57,10.30
2012,05,25,06,58,10.40
2012,05,25,06,59,10.40
2012,05,25,07,00,10.40
2012,05,25,07,01,10.40
2012,05,25,07,02,10.40
2012,05,25,07,03,10.40
2012,05,25,07,04,10.40
2012,05,25,07,05,10.40
2012,05,25,07,06,10.40
2012,05,25,07,07,10.40
2012,05,25,07,08,10.40
2012,05,25,07,09,10.40
2012,05,25,07,10,10.40
2012,05,25,07,11,10.50
2012,05,25,07,12,10.50
2012,05,25,07,13,10.50
2012,05,25,07,14,10.50
2012,05,25,07,15,10.60
2012,05,25,07,16,10.60
2012,05,25,07,17,10.60
2012,05,25,07,18,10.60
2012,05,25,07,19,10.60
2012,05,25,07,20,10.70
2012,05,25,07,21,10.70
2012,05,25,07,22,10.70
2012,05,25,07,23,10.70
2012,05,25,07,24,10.80
2012,05,25,07,25,10.80
2012,05,25,07,26,10.90
2012,05,25,07,27,10.90
2012,05,25,07,28,10.90
2012,05,25,07,29,11.00
2012,05,25,07,30,11.10
2012,05,25,07,31,11.20
2012,05,25,07,32,11.20
2012,05,25,07,33,11.30
2012,05,25,07,34,11.30
2012,05,25,07,35,11.40
2012,05,25,07,36,11.40
2012,05,25,07,37,11.50
2012,05,25,07,38,11.50
2012,05,25,07,39,11.60
2012,05,25,07,40,11.60
2012,05,25,07,41,11.70
2012,05,25,07,42,11.70
2012,05,25,07,43,11.80
2012,05,25,07,44,11.80
2012,05,25,07,45,11.80
2012,05,25,07,46,11.90
2012,05,25,07,47,11.90
2012,05,25,07,48,12.00
2012,05,25,07,49,12.10
2012,05,25,07,50,12.10
2012,05,25,07,51,12.20
2012,05,25,07,52,12.20
2012,05,25,07,53,12.30
2012,05,25,07,54,12.30
2012,05,25,07,55,12.40
2012,05,25,07,56,12.50
2012,05,25,07,57,12.50
2012,05,25,07,58,12.60
2012,05,25,07,59,12.70
2012,05,25,08,00,12.70
2012,05,25,08,01,12.80
2012,05,25,08,02,12.80
2012,05,25,08,03,12.90
2012,05,25,08,04,12.90
2012,05,25,08,05,13.00
2012,05,25,08,06,13.10
2012,05,25,08,07,13.10
2012,05,25,08,08,13.20
2012,05,25,08,09,13.20
2012,05,25,08,10,13.20
2012,05,25,08,11,13.30
2012,05,25,08,12,13.30
2012,05,25,08,13,13.30
2012,05,25,08,14,13.40
2012,05,25,08,15,13.40
2012,05,25,08,16,13.40
2012,05,25,08,17,13.50
2012,05,25,08,18,13.50
2012,05,25,08,19,13.60
2012,05,25,08,20,13.60
2012,05,25,08,21,13.70
2012,05,25,08,22,13.70
2012,05,25,08,23,13.80
2012,05,25,08,24,13.80
2012,05,25,08,25,13.90
2012,05,25,08,26,13.90
2012,05,25,08,27,14.00
2012,05,25,08,28,14.00
2012,05,25,08,29,14.10
2012,05,25,08,30,14.10
2012,05,25,08,31,14.20
2012,05,25,08,32,14.30
2012,05,25,08,33,14.30
2012,05,25,08,34,14.40
2012,05,25,08,35,14.40
2012,05,25,08,36,14.40
2012,05,25,08,37,14.40
2012,05,25,08,38,14.40
2012,05,25,08,39,14.50
2012,05,25,08,40,14.50
2012,05,25,08,41,14.50
2012,05,25,08,42,14.60
2012,05,25,08,43,14.60
2012,05,25,08,44,14.60
2012,05,25,08,45,14.70
2012,05,25,08,46,14.70
2012,05,25,08,47,14.70
2012,05,25,08,48,14.80
2012,05,25,08,49,14.90
2012,05,25,08,50,15.00
2012,05,25,08,51,15.10
2012,05,25,08,52,15.10
2012,05,25,08,53,15.20
2012,05,25,08,54,15.20
2012,05,25,08,55,15.20
2012,05,25,08,56,15.10
2012,05,25,08,57,15.10
2012,05,25,08,58,15.10
2012,05,25,08,59,15.10
2012,05,25,09,00,15.10
2012,05,25,09,01,15.10
2012,05,25,09,02,15.10
2012,05,25,09,03,15.10
2012,05,25,09,04,15.10
2012,05,25,09,05,15.10
2012,05,25,09,06,15.10
2012,05,25,09,07,15.10
2012,05,25,09,08,15.00
2012,05,25,09,09,15.00
2012,05,25,09,10,15.00
2012,05,25,09,11,15.00
2012,05,25,09,12,14.90
2012,05,25,09,13,14.80
2012,05,25,09,14,14.70
2012,05,25,09,15,14.60
2012,05,25,09,16,14.50
2012,05,25,09,17,14.40
2012,05,25,09,18,14.40
2012,05,25,09,19,14.30
2012,05,25,09,20,14.30
2012,05,25,09,21,14.30
2012,05,25,09,22,14.30
2012,05,25,09,23,14.30
2012,05,25,09,24,14.30
2012,05,25,09,25,14.40
2012,05,25,09,26,14.40
2012,05,25,09,27,14.40
2012,05,25,09,28,14.40
2012,05,25,09,29,14.40
2012,05,25,09,30,14.40
2012,05,25,09,31,14.40
2012,05,25,09,32,14.40
2012,05,25,09,33,14.40
2012,05,25,09,34,14.40
2012,05,25,09,35,14.50
2012,05,25,09,36,14.50
2012,05,25,09,37,14.40
2012,05,25,09,38,14.30
2012,05,25,09,39,14.20
2012,05,25,09,40,14.20
2012,05,25,09,41,14.10
2012,05,25,09,42,14.00
2012,05,25,09,43,14.00
2012,05,25,09,44,14.00
2012,05,25,09,45,14.00
2012,05,25,09,46,14.00
2012,05,25,09,47,14.00
2012,05,25,09,48,14.10
2012,05,25,09,49,14.20
2012,05,25,09,50,14.30
2012,05,25,09,51,14.30
2012,05,25,09,52,14.30
2012,05,25,09,53,14.30
2012,05,25,09,54,14.30
2012,05,25,09,55,14.20
2012,05,25,09,56,14.20
2012,05,25,09,57,14.20
2012,05,25,09,58,14.20
2012,05,25,09,59,14.10
2012,05,25,10,00,14.10
2012,05,25,10,01,14.00
2012,05,25,10,02,14.00
2012,05,25,10,03,14.00
2012,05,25,10,04,14.00
2012,05,25,10,05,14.00
2012,05,25,10,06,14.00
2012,05,25,10,07,14.00
2012,05,25,10,08,14.00
2012,05,25,10,09,14.00
2012,05,25,10,10,14.10
2012,05,25,10,11,14.10
2012,05,25,10,12,14.10
2012,05,25,10,13,14.10
2012,05,25,10,14,14.10
2012,05,25,10,15,14.10
2012,05,25,10,16,14.10
2012,05,25,10,17,14.10
2012,05,25,10,18,14.20
2012,05,25,10,19,14.20
2012,05,25,10,20,14.30
2012,05,25,10,21,14.30
2012,05,25,10,22,14.40
2012,05,25,10,23,14.50
2012,05,25,10,24,14.60
2012,05,25,10,25,14.60
2012,05,25,10,26,14.60
2012,05,25,10,27,14.70
2012,05,25,10,28,14.80
2012,05,25,10,29,14.80
2012,05,25,10,30,14.90
2012,05,25,10,31,15.00
2012,05,25,10,32,15.00
2012,05,25,10,33,15.10
2012,05,25,10,34,15.10
2012,05,25,10,35,15.20
2012,05,25,10,36,15.20
2012,05,25,10,37,15.20
2012,05,25,10,38,15.10
2012,05,25,10,39,15.10
2012,05,25,10,40,15.10
2012,05,25,10,41,15.10
2012,05,25,10,42,15.10
2012,05,25,10,43,15.10
2012,05,25,10,44,15.20
2012,05,25,10,45,15.20
2012,05,25,10,46,15.30
2012,05,25,10,47,15.30
2012,05,25,10,48,15.40
2012,05,25,10,49,15.40
2012,05,25,10,50,15.40
2012,05,25,10,51,15.40
2012,05,25,10,52,15.40
2012,05,25,10,53,15.30
2012,05,25,10,54,15.30
2012,05,25,10,55,15.30
2012,05,25,10,56,15.30
2012,05,25,10,57,15.30
2012,05,25,10,58,15.40
2012,05,25,10,59,15.40
2012,05,25,11,00,15.40
2012,05,25,11,01,15.40
2012,05,25,11,02,15.40
2012,05,25,11,03,15.30
2012,05,25,11,04,15.20
2012,05,25,11,05,15.20
2012,05,25,11,06,15.20
2012,05,25,11,07,15.20
2012,05,25,11,08,15.20
2012,05,25,11,09,15.20
2012,05,25,11,10,15.20
2012,05,25,11,11,15.20
2012,05,25,11,12,15.20
2012,05,25,11,13,15.20
2012,05,25,11,14,15.30
2012,05,25,11,15,15.30
2012,05,25,11,16,15.40
2012,05,25,11,17,15.50
2012,05,25,11,18,15.60
2012,05,25,11,19,15.70
2012,05,25,11,20,15.80
2012,05,25,11,21,15.90
2012,05,25,11,22,15.90
2012,05,25,11,23,15.90
2012,05,25,11,24,16.00
2012,05,25,11,25,16.10
2012,05,25,11,26,16.20
2012,05,25,11,27,16.30
2012,05,25,11,28,16.30
2012,05,25,11,29,16.40
2012,05,25,11,30,16.50
2012,05,25,11,31,16.70
2012,05,25,11,32,16.70
2012,05,25,11,33,16.70
2012,05,25,11,34,16.70
2012,05,25,11,35,16.60
2012,05,25,11,36,16.60
2012,05,25,11,37,16.50
2012,05,25,11,38,16.40
2012,05,25,11,39,16.30
2012,05,25,11,40,16.20
2012,05,25,11,41,16.10
2012,05,25,11,42,16.00
2012,05,25,11,43,16.00
2012,05,25,11,44,15.90
2012,05,25,11,45,15.90
2012,05,25,11,46,15.90
2012,05,25,11,47,15.90
2012,05,25,11,48,15.90
2012,05,25,11,49,16.00
2012,05,25,11,50,16.00
2012,05,25,11,51,16.10
2012,05,25,11,52,16.20
2012,05,25,11,53,16.20
2012,05,25,11,54,16.20
2012,05,25,11,55,16.20
2012,05,25,11,56,16.20
2012,05,25,11,57,16.20
2012,05,25,11,58,16.30
2012,05,25,11,59,16.20
2012,05,25,12,00,16.20
2012,05,25,12,01,16.20
2012,05,25,12,02,16.20
2012,05,25,12,03,16.10
2012,05,25,12,04,16.10
2012,05,25,12,05,16.00
2012,05,25,12,06,15.90
2012,05,25,12,07,15.80
2012,05,25,12,08,15.70
2012,05,25,12,09,15.60
2012,05,25,12,10,15.60
2012,05,25,12,11,15.50
2012,05,25,12,12,15.40
2012,05,25,12,13,15.40
2012,05,25,12,14,15.40
2012,05,25,12,15,15.50
2012,05,25,12,16,15.60
2012,05,25,12,17,15.70
2012,05,25,12,18,15.70
2012,05,25,12,19,15.70
2012,05,25,12,20,15.70
2012,05,25,12,21,15.70
2012,05,25,12,22,15.70
2012,05,25,12,23,15.70
2012,05,25,12,24,15.70
2012,05,25,12,25,15.60
2012,05,25,12,26,15.70
2012,05,25,12,27,15.70
2012,05,25,12,28,15.60
2012,05,25,12,29,15.50
2012,05,25,12,30,15.50
2012,05,25,12,31,15.50
2012,05,25,12,32,15.50
2012,05,25,12,33,15.60
2012,05,25,12,34,15.60
2012,05,25,12,35,15.60
2012,05,25,12,36,15.60
2012,05,25,12,37,15.50
2012,05,25,12,38,15.40
2012,05,25,12,39,15.40
2012,05,25,12,40,15.50
2012,05,25,12,41,15.60
2012,05,25,12,42,15.60
2012,05,25,12,43,15.70
2012,05,25,12,44,15.70
2012,05,25,12,45,15.80
2012,05,25,12,46,15.80
2012,05,25,12,47,15.90
2012,05,25,12,48,15.90
2012,05,25,12,49,15.90
2012,05,25,12,50,15.90
2012,05,25,12,51,15.80
2012,05,25,12,52,15.80
2012,05,25,12,53,15.80
2012,05,25,12,54,15.80
2012,05,25,12,55,15.80
2012,05,25,12,56,15.70
2012,05,25,12,57,15.70
2012,05,25,12,58,15.70
2012,05,25,12,59,15.70
2012,05,25,13,00,15.80
2012,05,25,13,01,15.80
2012,05,25,13,02,15.80
2012,05,25,13,03,15.80
2012,05,25,13,04,15.80
2012,05,25,13,05,15.90
2012,05,25,13,06,15.90
2012,05,25,13,07,16.00
2012,05,25,13,08,16.10
2012,05,25,13,09,16.20
2012,05,25,13,10,16.30
2012,05,25,13,11,16.40
2012,05,25,13,12,16.50
2012,05,25,13,13,16.60
2012,05,25,13,14,16.70
2012,05,25,13,15,16.70
2012,05,25,13,16,16.70
2012,05,25,13,17,16.70
2012,05,25,13,18,16.60
2012,05,25,13,19,16.50
2012,05,25,13,20,16.50
2012,05,25,13,21,16.50
2012,05,25,13,22,16.60
2012,05,25,13,23,16.60
2012,05,25,13,24,16.70
2012,05,25,13,25,16.70
2012,05,25,13,26,16.70
2012,05,25,13,27,16.70
2012,05,25,13,28,16.70
2012,05,25,13,29,16.70
2012,05,25,13,30,16.80
2012,05,25,13,31,16.90
2012,05,25,13,32,17.00
2012,05,25,13,33,17.10
2012,05,25,13,34,17.20
2012,05,25,13,35,17.30
2012,05,25,13,36,17.30
2012,05,25,13,37,17.20
2012,05,25,13,38,17.20
2012,05,25,13,39,17.20
2012,05,25,13,40,17.20
2012,05,25,13,41,17.30
2012,05,25,13,42,17.40
2012,05,25,13,43,17.50
2012,05,25,13,44,17.50
2012,05,25,13,45,17.60
2012,05,25,13,46,17.70
2012,05,25,13,47,17.80
2012,05,25,13,48,17.90
2012,05,25,13,49,17.90
2012,05,25,13,50,17.90
2012,05,25,13,51,18.00
2012,05,25,13,52,18.10
2012,05,25,13,53,18.20
2012,05,25,13,54,18.30
2012,05,25,13,55,18.30
2012,05,25,13,56,18.40
2012,05,25,13,57,18.50
2012,05,25,13,58,18.50
2012,05,25,13,59,18.60
2012,05,25,14,00,18.70
2012,05,25,14,01,18.80
2012,05,25,14,02,18.90
2012,05,25,14,03,19.00
2012,05,25,14,04,19.10
2012,05,25,14,05,19.20
2012,05,25,14,06,19.30
2012,05,25,14,07,19.40
2012,05,25,14,08,19.50
2012,05,25,14,09,19.60
2012,05,25,14,10,19.60
2012,05,25,14,11,19.70
2012,05,25,14,12,19.70
2012,05,25,14,13,19.60
2012,05,25,14,14,19.50
2012,05,25,14,15,19.50
2012,05,25,14,16,19.40
2012,05,25,14,17,19.30
2012,05,25,14,18,19.20
2012,05,25,14,19,19.10
2012,05,25,14,20,18.90
2012,05,25,14,21,18.80
2012,05,25,14,22,18.70
2012,05,25,14,23,18.60
2012,05,25,14,24,18.50
2012,05,25,14,25,18.50
2012,05,25,14,26,18.40
2012,05,25,14,27,18.30
2012,05,25,14,28,18.30
2012,05,25,14,29,18.20
2012,05,25,14,30,18.30
2012,05,25,14,31,18.30
2012,05,25,14,32,18.30
2012,05,25,14,33,18.30
2012,05,25,14,34,18.30
2012,05,25,14,35,18.40
2012,05,25,14,36,18.40
2012,05,25,14,37,18.40
2012,05,25,14,38,18.50
2012,05,25,14,39,18.50
2012,05,25,14,40,18.60
2012,05,25,14,41,18.70
2012,05,25,14,42,18.80
2012,05,25,14,43,18.80
2012,05,25,14,44,18.70
2012,05,25,14,45,18.60
2012,05,25,14,46,18.50
2012,05,25,14,47,18.40
2012,05,25,14,48,18.40
2012,05,25,14,49,18.30
2012,05,25,14,50,18.30
2012,05,25,14,51,18.30
2012,05,25,14,52,18.30
2012,05,25,14,53,18.40
2012,05,25,14,54,18.40
2012,05,25,14,55,18.50
2012,05,25,14,56,18.60
2012,05,25,14,57,18.60
2012,05,25,14,58,18.70
2012,05,25,14,59,18.80
2012,05,25,15,00,18.90
2012,05,25,15,01,19.00
2012,05,25,15,02,19.10
2012,05,25,15,03,19.10
2012,05,25,15,04,19.20
2012,05,25,15,05,19.30
2012,05,25,15,06,19.30
2012,05,25,15,07,19.30
2012,05,25,15,08,19.40
2012,05,25,15,09,19.40
2012,05,25,15,10,19.50
2012,05,25,15,11,19.50
2012,05,25,15,12,19.50
2012,05,25,15,13,19.40
2012,05,25,15,14,19.30
2012,05,25,15,15,19.20
2012,05,25,15,16,19.20
2012,05,25,15,17,19.30
2012,05,25,15,18,19.20
2012,05,25,15,19,19.10
2012,05,25,15,20,19.00
2012,05,25,15,21,19.00
2012,05,25,15,22,18.90
2012,05,25,15,23,19.00
2012,05,25,15,24,18.90
2012,05,25,15,25,18.80
2012,05,25,15,26,18.80
2012,05,25,15,27,18.70
2012,05,25,15,28,18.70
2012,05,25,15,29,18.70
2012,05,25,15,30,18.70
2012,05,25,15,31,18.60
2012,05,25,15,32,18.60
2012,05,25,15,33,18.50
2012,05,25,15,34,18.40
2012,05,25,15,35,18.40
2012,05,25,15,36,18.40
2012,05,25,15,37,18.40
2012,05,25,15,38,18.40
2012,05,25,15,39,18.40
2012,05,25,15,40,18.50
2012,05,25,15,41,18.50
2012,05,25,15,42,18.50
2012,05,25,15,43,18.60
2012,05,25,15,44,18.60
2012,05,25,15,45,18.70
2012,05,25,15,46,18.70
2012,05,25,15,47,18.70
2012,05,25,15,48,18.70
2012,05,25,15,49,18.80
2012,05,25,15,50,18.90
2012,05,25,15,51,19.00
2012,05,25,15,52,19.00
2012,05,25,15,53,19.00
2012,05,25,15,54,18.90
2012,05,25,15,55,19.00
2012,05,25,15,56,18.90
2012,05,25,15,57,18.90
2012,05,25,15,58,19.00
2012,05,25,15,59,19.00
2012,05,25,16,00,19.00
2012,05,25,16,01,19.00
2012,05,25,16,02,19.10
2012,05,25,16,03,19.10
2012,05,25,16,04,19.20
2012,05,25,16,05,19.30
2012,05,25,16,06,19.40
2012,05,25,16,07,19.50
2012,05,25,16,08,19.60
2012,05,25,16,09,19.60
2012,05,25,16,10,19.60
2012,05,25,16,11,19.60
2012,05,25,16,12,19.60
2012,05,25,16,13,19.60
2012,05,25,16,14,19.50
2012,05,25,16,15,19.40
2012,05,25,16,16,19.40
2012,05,25,16,17,19.30
2012,05,25,16,18,19.30
2012,05,25,16,19,19.30
2012,05,25,16,20,19.30
2012,05,25,16,21,19.30
2012,05,25,16,22,19.30
2012,05,25,16,23,19.40
2012,05,25,16,24,19.40
2012,05,25,16,25,19.40
2012,05,25,16,26,19.50
2012,05,25,16,27,19.50
2012,05,25,16,28,19.50
2012,05,25,16,29,19.40
2012,05,25,16,30,19.30
2012,05,25,16,31,19.30
2012,05,25,16,32,19.30
2012,05,25,16,33,19.30
2012,05,25,16,34,19.30
2012,05,25,16,35,19.30
2012,05,25,16,36,19.30
2012,05,25,16,37,19.30
2012,05,25,16,38,19.30
2012,05,25,16,39,19.30
2012,05,25,16,40,19.30
2012,05,25,16,41,19.30
2012,05,25,16,42,19.40
2012,05,25,16,43,19.50
2012,05,25,16,44,19.60
2012,05,25,16,45,19.60
2012,05,25,16,46,19.70
2012,05,25,16,47,19.70
2012,05,25,16,48,19.70
2012,05,25,16,49,19.80
2012,05,25,16,50,19.80
2012,05,25,16,51,19.80
2012,05,25,16,52,19.90
2012,05,25,16,53,19.90
2012,05,25,16,54,19.90
2012,05,25,16,55,19.90
2012,05,25,16,56,19.90
2012,05,25,16,57,19.90
2012,05,25,16,58,19.90
2012,05,25,16,59,19.80
2012,05,25,17,00,19.80
2012,05,25,17,01,19.80
2012,05,25,17,02,19.70
2012,05,25,17,03,19.70
2012,05,25,17,04,19.70
2012,05,25,17,05,19.70
2012,05,25,17,06,19.70
2012,05,25,17,07,19.70
2012,05,25,17,08,19.70
2012,05,25,17,09,19.60
2012,05,25,17,10,19.60
2012,05,25,17,11,19.60
2012,05,25,17,12,19.60
2012,05,25,17,13,19.70
2012,05,25,17,14,19.80
2012,05,25,17,15,19.90
2012,05,25,17,16,20.00
2012,05,25,17,17,20.10
2012,05,25,17,18,20.20
2012,05,25,17,19,20.10
2012,05,25,17,20,20.10
2012,05,25,17,21,20.10
2012,05,25,17,22,20.00
2012,05,25,17,23,20.00
2012,05,25,17,24,20.00
2012,05,25,17,25,20.10
2012,05,25,17,26,20.10
2012,05,25,17,27,20.20
2012,05,25,17,28,20.20
2012,05,25,17,29,20.20
2012,05,25,17,30,20.20
2012,05,25,17,31,20.20
2012,05,25,17,32,20.10
2012,05,25,17,33,20.00
2012,05,25,17,34,20.00
2012,05,25,17,35,19.90